Location: Buckeye Ditch
(40.9104°N, 122.9517°W)
Time: 15:12:18
(UTC+00:00)

A-11 Canister half - Pass Details

Date: 21 May 2025
Orbit: 1515 x 1684 km, 47.2° (Epoch: 14 June)

Event Time Altitude Azimuth Distance (km) Brightness Sun altitude
Rises 07:25:37 0° 236° (SW) 4,790 11.4 -28.0°
Reaches altitude 10° 07:28:44 10° 235° (SW) 3,784 10.8 -28.1°
Maximum altitude 07:38:19 83° 150° (SSE) 1,560 8.8 -28.4°
Drops below altitude 10° 07:47:38 10° 64° (ENE) 3,688 11.2 -28.6°
Sets 07:50:38 0° 64° (ENE) 4,664 11.8 -28.7°
